| time (UTC) | temp C | wind direction | speed KPH | gust KPH | rain 1hr cm | rain 24hr cm | rain mn cm | humidity % | barometer mb |
| 20260502151733 | 14 | 281 | 9.7 | 17.7 | 0.00 | 0.00 | 0.00 | 28 | 1015.3 |
| 20260502151230 | 14 | 332 | 12.9 | 14.5 | 0.00 | 0.00 | 0.00 | 28 | 1015.6 |
| 20260502150727 | 13 | 255 | 14.5 | 17.7 | 0.00 | 0.00 | 0.00 | 29 | 1015.9 |
| 20260502150224 | 13 | 266 | 14.5 | 20.9 | 0.00 | 0.00 | 0.00 | 30 | 1015.5 |
| 20260502130613 | 3 | 291 | 14.5 | 20.9 | 0.00 | 0.00 | 0.00 | 57 | 1015.5 |
| 20260502130110 | 3 | 299 | 16.1 | 17.7 | 0.00 | 0.00 | 0.00 | 58 | 1015.5 |
| 20260502123550 | 2 | 343 | 8.0 | 14.5 | 0.00 | 0.00 | 0.00 | 59 | 1015.5 |
| 20260502123046 | 2 | 322 | 3.2 | 6.4 | 0.00 | 0.00 | 0.00 | 59 | 1015.3 |
| 20260502122543 | 2 | 291 | 8.0 | 12.9 | 0.00 | 0.00 | 0.00 | 58 | 1015.4 |
| 20260502122040 | 3 | 275 | 12.9 | 22.5 | 0.00 | 0.00 | 0.00 | 57 | 1015.5 |
| 20260502121537 | 3 | 298 | 20.9 | 25.7 | 0.00 | 0.00 | 0.00 | 55 | 1015.1 |
| 20260502121035 | 2 | 291 | 17.7 | 25.7 | 0.00 | 0.00 | 0.00 | 57 | 1015.3 |
| 20260502120531 | 3 | 308 | 14.5 | 24.1 | 0.00 | 0.00 | 0.00 | 57 | 1015.2 |
| 20260502115526 | 3 | 299 | 20.9 | 24.1 | 0.00 | 0.00 | 0.00 | 57 | 1015.4 |
| 20260502115022 | 3 | 273 | 12.9 | 20.9 | 0.00 | 0.00 | 0.00 | 57 | 1015.4 |
| 20260502114519 | 3 | 268 | 16.1 | 24.1 | 0.00 | 0.00 | 0.00 | 56 | 1015.4 |
| 20260502114015 | 3 | 283 | 17.7 | 25.7 | 0.00 | 0.00 | 0.00 | 56 | 1015.6 |
| 20260502113513 | 2 | 275 | 19.3 | 22.5 | 0.00 | 0.00 | 0.00 | 58 | 1015.5 |
| 20260502113011 | 3 | 305 | 12.9 | 17.7 | 0.00 | 0.00 | 0.00 | 58 | 1015.4 |
| 20260502112509 | 3 | 292 | 9.7 | 14.5 | 0.00 | 0.00 | 0.00 | 57 | 1015.6 |
| 20260502112006 | 3 | 329 | 14.5 | 16.1 | 0.00 | 0.00 | 0.00 | 56 | 1015.6 |
| 20260502111504 | 3 | 345 | 9.7 | 16.1 | 0.00 | 0.00 | 0.00 | 56 | 1015.5 |
| 20260502111001 | 3 | 283 | 17.7 | 24.1 | 0.00 | 0.00 | 0.00 | 54 | 1015.5 |
| 20260502110458 | 2 | 298 | 17.7 | 24.1 | 0.00 | 0.00 | 0.00 | 58 | 1015.6 |
| 20260502105955 | 3 | 330 | 8.0 | 11.3 | 0.00 | 0.00 | 0.00 | 59 | 1015.8 |
| 20260502105453 | 3 | 284 | 16.1 | 24.1 | 0.00 | 0.00 | 0.00 | 55 | 1015.6 |
| 20260502104950 | 3 | 294 | 19.3 | 22.5 | 0.00 | 0.00 | 0.00 | 54 | 1015.6 |
| 20260502104447 | 3 | 294 | 17.7 | 22.5 | 0.00 | 0.00 | 0.00 | 56 | 1015.9 |
| 20260502103945 | 4 | 293 | 19.3 | 25.7 | 0.00 | 0.00 | 0.00 | 54 | 1016.1 |
| 20260502103442 | 3 | 289 | 20.9 | 24.1 | 0.00 | 0.00 | 0.00 | 57 | 1015.8 |
| 20260502102939 | 3 | 286 | 20.9 | 25.7 | 0.00 | 0.00 | 0.00 | 56 | 1015.5 |
| 20260502102436 | 3 | 284 | 17.7 | 22.5 | 0.00 | 0.00 | 0.00 | 58 | 1015.6 |
| 20260502101933 | 4 | 265 | 22.5 | 25.7 | 0.00 | 0.00 | 0.00 | 55 | 1015.6 |
| 20260502101431 | 4 | 293 | 22.5 | 27.4 | 0.00 | 0.00 | 0.00 | 55 | 1015.6 |
| 20260502100929 | 4 | 314 | 20.9 | 25.7 | 0.00 | 0.00 | 0.00 | 55 | 1015.5 |
| 20260502100428 | 3 | 311 | 19.3 | 24.1 | 0.00 | 0.00 | 0.00 | 57 | 1015.6 |
| 20260502091402 | 2 | 286 | 12.9 | 14.5 | 0.00 | 0.00 | 0.00 | 67 | 1015.8 |
| 20260502090859 | 2 | 262 | 9.7 | 12.9 | 0.00 | 0.00 | 0.00 | 67 | 1015.5 |
| 20260502090355 | 2 | 288 | 9.7 | 16.1 | 0.00 | 0.00 | 0.00 | 67 | 1015.9 |
| 20260502071250 | 4 | 329 | 6.4 | 12.9 | 0.00 | 0.00 | 0.00 | 61 | 1016.1 |
| 20260502070748 | 4 | 331 | 3.2 | 12.9 | 0.00 | 0.00 | 0.00 | 62 | 1016.1 |
| 20260502070245 | 4 | 314 | 8.0 | 17.7 | 0.00 | 0.00 | 0.00 | 61 | 1016.3 |
| 20260502065744 | 5 | 285 | 9.7 | 11.3 | 0.00 | 0.00 | 0.00 | 60 | 1016.3 |
| 20260502065242 | 5 | 315 | 4.8 | 6.4 | 0.00 | 0.00 | 0.00 | 57 | 1016.3 |
| 20260502064740 | 5 | 301 | 6.4 | 11.3 | 0.00 | 0.00 | 0.00 | 58 | 1016.2 |
| 20260502064238 | 5 | 302 | 6.4 | 9.7 | 0.00 | 0.00 | 0.00 | 57 | 1016.0 |
| 20260502063735 | 5 | 338 | 6.4 | 11.3 | 0.00 | 0.00 | 0.00 | 58 | 1016.0 |
| 20260502063233 | 5 | 332 | 6.4 | 16.1 | 0.00 | 0.00 | 0.00 | 58 | 1016.3 |
| 20260502062730 | 5 | 294 | 14.5 | 16.1 | 0.00 | 0.00 | 0.00 | 59 | 1016.3 |
| 20260502062227 | 6 | 276 | 12.9 | 14.5 | 0.00 | 0.00 | 0.00 | 51 | 1016.3 |
| 20260502061726 | 5 | 295 | 12.9 | 14.5 | 0.00 | 0.00 | 0.00 | 51 | 1016.1 |
| 20260502061223 | 6 | 307 | 8.0 | 9.7 | 0.00 | 0.00 | 0.00 | 51 | 1016.0 |
| 20260502060719 | 6 | 271 | 4.8 | 6.4 | 0.00 | 0.00 | 0.00 | 46 | 1016.2 |
| 20260502060215 | 6 | 281 | 4.8 | 6.4 | 0.00 | 0.00 | 0.00 | 47 | 1016.3 |
| 20260502055713 | 8 | 300 | 4.8 | 6.4 | 0.00 | 0.00 | 0.00 | 49 | 1016.1 |
| 20260502055210 | 8 | 284 | 1.6 | 3.2 | 0.00 | 0.00 | 0.00 | 63 | 1016.2 |
| 20260502054709 | 8 | 312 | 0.0 | 1.6 | 0.00 | 0.00 | 0.00 | 63 | 1016.2 |
| 20260502054206 | 8 | 321 | 0.0 | 1.6 | 0.00 | 0.00 | 0.00 | 61 | 1016.1 |
| 20260502053704 | 8 | 335 | 1.6 | 1.6 | 0.00 | 0.00 | 0.00 | 61 | 1016.1 |
| 20260502053201 | 8 | 332 | 0.0 | 0.0 | 0.00 | 0.00 | 0.00 | 57 | 1016.0 |
| 20260502052659 | 8 | 329 | 0.0 | 0.0 | 0.00 | 0.00 | 0.00 | 56 | 1016.1 |
| 20260502052157 | 8 | 349 | 1.6 | 3.2 | 0.00 | 0.00 | 0.00 | 53 | 1016.0 |
| 20260502051655 | 9 | 342 | 0.0 | 0.0 | 0.00 | 0.00 | 0.00 | 34 | 1016.1 |
| 20260502051152 | 9 | 320 | 0.0 | 0.0 | 0.00 | 0.00 | 0.00 | 34 | 1016.1 |
| 20260502050642 | 9 | 351 | 0.0 | 0.0 | 0.00 | 0.00 | 0.00 | 34 | 1016.0 |
| 20260502050139 | 10 | 345 | 0.0 | 0.0 | 0.00 | 0.00 | 0.00 | 33 | 1016.1 |
| 20260502045636 | 9 | 312 | 0.0 | 0.0 | 0.00 | 0.00 | 0.00 | 33 | 1016.0 |
| 20260502045134 | 9 | 287 | 0.0 | 1.6 | 0.00 | 0.00 | 0.00 | 34 | 1016.1 |
| 20260502044630 | 10 | 243 | 4.8 | 9.7 | 0.00 | 0.00 | 0.00 | 36 | 1016.1 |
| 20260502044126 | 11 | 357 | 0.0 | 3.2 | 0.00 | 0.00 | 0.00 | 30 | 1016.0 |
| 20260502043624 | 11 | 194 | 1.6 | 3.2 | 0.00 | 0.00 | 0.00 | 30 | 1016.1 |
| 20260502043120 | 11 | 172 | 3.2 | 3.2 | 0.00 | 0.00 | 0.00 | 30 | 1016.2 |
| 20260502042615 | 10 | 222 | 1.6 | 3.2 | 0.00 | 0.00 | 0.00 | 31 | 1016.1 |
| 20260502042112 | 10 | 216 | 3.2 | 4.8 | 0.00 | 0.00 | 0.00 | 31 | 1016.2 |
| 20260502041610 | 10 | 221 | 1.6 | 4.8 | 0.00 | 0.00 | 0.00 | 31 | 1016.2 |
| 20260502041107 | 10 | 236 | 4.8 | 4.8 | 0.00 | 0.00 | 0.00 | 35 | 1016.2 |
| 20260502040604 | 10 | 239 | 8.0 | 9.7 | 0.00 | 0.00 | 0.00 | 35 | 1016.2 |
| 20260502035556 | 11 | 4 | 3.2 | 3.2 | 0.00 | 0.00 | 0.00 | 29 | 1015.9 |
| 20260502035054 | 11 | 88 | 3.2 | 3.2 | 0.00 | 0.00 | 0.00 | 30 | 1015.9 |
| 20260502034552 | 11 | 34 | 1.6 | 3.2 | 0.00 | 0.00 | 0.00 | 30 | 1015.6 |
| 20260502034050 | 11 | 335 | 0.0 | 0.0 | 0.00 | 0.00 | 0.00 | 30 | 1016.1 |
| 20260502033548 | 11 | 356 | 0.0 | 0.0 | 0.00 | 0.00 | 0.00 | 31 | 1015.6 |
| 20260502033045 | 11 | 85 | 1.6 | 3.2 | 0.00 | 0.00 | 0.00 | 31 | 1015.6 |
| 20260502032541 | 11 | 67 | 4.8 | 6.4 | 0.00 | 0.00 | 0.00 | 29 | 1015.6 |
| 20260502032038 | 11 | 65 | 8.0 | 11.3 | 0.00 | 0.00 | 0.00 | 28 | 1015.4 |
| 20260502031536 | 11 | 88 | 8.0 | 9.7 | 0.00 | 0.00 | 0.00 | 29 | 1015.4 |
| 20260502031033 | 11 | 104 | 4.8 | 4.8 | 0.00 | 0.00 | 0.00 | 30 | 1015.5 |
| 20260502030532 | 11 | 95 | 4.8 | 6.4 | 0.00 | 0.00 | 0.00 | 30 | 1015.4 |
| 20260502030029 | 11 | 84 | 3.2 | 4.8 | 0.00 | 0.00 | 0.00 | 30 | 1015.3 |
| 20260502025526 | 11 | 80 | 3.2 | 4.8 | 0.00 | 0.00 | 0.00 | 30 | 1015.4 |
| 20260502025025 | 12 | 127 | 3.2 | 6.4 | 0.00 | 0.00 | 0.00 | 30 | 1015.4 |
| 20260502024521 | 12 | 111 | 3.2 | 4.8 | 0.00 | 0.00 | 0.00 | 29 | 1014.9 |
| 20260502024020 | 12 | 117 | 4.8 | 6.4 | 0.00 | 0.00 | 0.00 | 28 | 1015.2 |
| 20260502023517 | 13 | 351 | 1.6 | 3.2 | 0.00 | 0.00 | 0.00 | 28 | 1015.1 |
| 20260502023014 | 13 | 45 | 1.6 | 3.2 | 0.00 | 0.00 | 0.00 | 28 | 1015.1 |
| 20260502022511 | 13 | 72 | 3.2 | 3.2 | 0.00 | 0.00 | 0.00 | 28 | 1014.8 |
| 20260502022009 | 13 | 19 | 1.6 | 1.6 | 0.00 | 0.00 | 0.00 | 27 | 1014.8 |
| 20260502021506 | 13 | 98 | 1.6 | 3.2 | 0.00 | 0.00 | 0.00 | 26 | 1015.1 |
| 20260502021003 | 13 | 106 | 3.2 | 3.2 | 0.00 | 0.00 | 0.00 | 26 | 1014.7 |
| 20260502020500 | 14 | 52 | 1.6 | 3.2 | 0.00 | 0.00 | 0.00 | 25 | 1014.7 |
| 20260502015957 | 14 | 139 | 1.6 | 3.2 | 0.00 | 0.00 | 0.00 | 25 | 1014.8 |
| 20260502015455 | 14 | 225 | 3.2 | 3.2 | 0.00 | 0.00 | 0.00 | 25 | 1014.7 |
| 20260502014951 | 15 | 138 | 3.2 | 4.8 | 0.00 | 0.00 | 0.00 | 25 | 1014.5 |
| 20260502014448 | 15 | 128 | 3.2 | 6.4 | 0.00 | 0.00 | 0.00 | 24 | 1014.7 |
| 20260502013944 | 15 | 154 | 3.2 | 4.8 | 0.00 | 0.00 | 0.00 | 25 | 1014.6 |
| 20260502013440 | 15 | 159 | 3.2 | 4.8 | 0.00 | 0.00 | 0.00 | 25 | 1014.5 |
| 20260502012937 | 15 | 75 | 4.8 | 9.7 | 0.00 | 0.00 | 0.00 | 24 | 1014.5 |
| 20260502012435 | 15 | 147 | 4.8 | 6.4 | 0.00 | 0.00 | 0.00 | 24 | 1014.3 |
| 20260502011932 | 15 | 78 | 8.0 | 11.3 | 0.00 | 0.00 | 0.00 | 24 | 1014.5 |
| 20260502011428 | 15 | 120 | 6.4 | 9.7 | 0.00 | 0.00 | 0.00 | 23 | 1014.1 |
| 20260502010925 | 15 | 126 | 3.2 | 9.7 | 0.00 | 0.00 | 0.00 | 23 | 1014.5 |
| 20260502010421 | 15 | 117 | 6.4 | 6.4 | 0.00 | 0.00 | 0.00 | 22 | 1014.5 |
| 20260502005918 | 15 | 50 | 6.4 | 9.7 | 0.00 | 0.00 | 0.00 | 21 | 1014.3 |
| 20260502005416 | 16 | 144 | 6.4 | 9.7 | 0.00 | 0.00 | 0.00 | 22 | 1014.3 |
| 20260502004914 | 16 | 128 | 8.0 | 11.3 | 0.00 | 0.00 | 0.00 | 22 | 1014.5 |
| 20260502004409 | 16 | 77 | 8.0 | 12.9 | 0.00 | 0.00 | 0.00 | 22 | 1014.5 |
| 20260502003906 | 16 | 155 | 3.2 | 4.8 | 0.00 | 0.00 | 0.00 | 22 | 1014.5 |
| 20260502003403 | 16 | 357 | 6.4 | 6.4 | 0.00 | 0.00 | 0.00 | 21 | 1014.5 |
| 20260502002854 | 16 | 10 | 1.6 | 4.8 | 0.00 | 0.00 | 0.00 | 22 | 1014.3 |
| 20260502002352 | 16 | 205 | 0.0 | 4.8 | 0.00 | 0.00 | 0.00 | 22 | 1014.1 |
| 20260502001849 | 16 | 111 | 3.2 | 11.3 | 0.00 | 0.00 | 0.00 | 22 | 1014.3 |
| 20260502001346 | 16 | 86 | 12.9 | 17.7 | 0.00 | 0.00 | 0.00 | 21 | 1014.5 |
| 20260502000844 | 16 | 143 | 11.3 | 14.5 | 0.00 | 0.00 | 0.00 | 22 | 1014.3 |
| 20260502000342 | 16 | 76 | 6.4 | 17.7 | 0.00 | 0.00 | 0.00 | 23 | 1014.5 |
| 20260501235838 | 16 | 49 | 9.7 | 20.9 | 0.00 | 0.00 | 0.00 | 23 | 1014.6 |
| 20260501235334 | 17 | 355 | 3.2 | 4.8 | 0.00 | 0.00 | 0.00 | 21 | 1014.6 |
| 20260501234829 | 17 | 8 | 1.6 | 3.2 | 0.00 | 0.00 | 0.00 | 19 | 1014.3 |
| 20260501234326 | 16 | 316 | 1.6 | 4.8 | 0.00 | 0.00 | 0.00 | 22 | 1014.3 |
| 20260501233825 | 16 | 12 | 1.6 | 9.7 | 0.00 | 0.00 | 0.00 | 22 | 1014.5 |
| 20260501233322 | 16 | 11 | 6.4 | 12.9 | 0.00 | 0.00 | 0.00 | 20 | 1014.5 |
| 20260501232817 | 16 | 61 | 4.8 | 6.4 | 0.00 | 0.00 | 0.00 | 23 | 1014.2 |
| 20260501232315 | 16 | 247 | 1.6 | 9.7 | 0.00 | 0.00 | 0.00 | 22 | 1014.6 |
| 20260501231812 | 16 | 6 | 6.4 | 14.5 | 0.00 | 0.00 | 0.00 | 22 | 1014.6 |
| 20260501231310 | 17 | 333 | 1.6 | 3.2 | 0.00 | 0.00 | 0.00 | 21 | 1014.6 |
| 20260501230808 | 17 | 309 | 0.0 | 3.2 | 0.00 | 0.00 | 0.00 | 22 | 1014.5 |
| 20260501230307 | 16 | 253 | 4.8 | 6.4 | 0.00 | 0.00 | 0.00 | 21 | 1014.5 |
| 20260501225804 | 16 | 34 | 8.0 | 11.3 | 0.00 | 0.00 | 0.00 | 22 | 1014.3 |
| 20260501225305 | 16 | 12 | 6.4 | 16.1 | 0.00 | 0.00 | 0.00 | 21 | 1014.5 |
| 20260501224757 | 16 | 11 | 6.4 | 14.5 | 0.00 | 0.00 | 0.00 | 24 | 1014.3 |
| 20260501224255 | 16 | 344 | 1.6 | 4.8 | 0.00 | 0.00 | 0.00 | 22 | 1014.5 |
| 20260501223751 | 17 | 307 | 0.0 | 4.8 | 0.00 | 0.00 | 0.00 | 21 | 1014.6 |
| 20260501223247 | 16 | 3 | 6.4 | 9.7 | 0.00 | 0.00 | 0.00 | 23 | 1014.7 |
| 20260501222743 | 16 | 357 | 9.7 | 12.9 | 0.00 | 0.00 | 0.00 | 21 | 1014.7 |
| 20260501222241 | 16 | 25 | 14.5 | 17.7 | 0.00 | 0.00 | 0.00 | 22 | 1014.8 |
| 20260501221738 | 17 | 71 | 6.4 | 16.1 | 0.00 | 0.00 | 0.00 | 23 | 1014.8 |
| 20260501221235 | 17 | 3 | 1.6 | 3.2 | 0.00 | 0.00 | 0.00 | 21 | 1014.8 |
| 20260501220732 | 16 | 315 | 1.6 | 3.2 | 0.00 | 0.00 | 0.00 | 23 | 1014.8 |
| 20260501220229 | 16 | 354 | 6.4 | 6.4 | 0.00 | 0.00 | 0.00 | 23 | 1014.9 |
| 20260501215726 | 16 | 28 | 12.9 | 16.1 | 0.00 | 0.00 | 0.00 | 24 | 1014.9 |
| 20260501215222 | 16 | 348 | 0.0 | 4.8 | 0.00 | 0.00 | 0.00 | 23 | 1014.9 |
| 20260501214717 | 15 | 22 | 4.8 | 6.4 | 0.00 | 0.00 | 0.00 | 23 | 1014.9 |
| 20260501214213 | 15 | 352 | 3.2 | 12.9 | 0.00 | 0.00 | 0.00 | 23 | 1015.1 |
| 20260501213710 | 16 | 10 | 9.7 | 14.5 | 0.00 | 0.00 | 0.00 | 22 | 1015.1 |
| 20260501213206 | 16 | 326 | 0.0 | 3.2 | 0.00 | 0.00 | 0.00 | 23 | 1015.3 |
| 20260501212702 | 16 | 38 | 6.4 | 11.3 | 0.00 | 0.00 | 0.00 | 23 | 1015.1 |
| 20260501212159 | 16 | 318 | 3.2 | 6.4 | 0.00 | 0.00 | 0.00 | 24 | 1015.2 |
| 20260501211655 | 16 | 21 | 4.8 | 6.4 | 0.00 | 0.00 | 0.00 | 22 | 1015.3 |
| 20260501211153 | 16 | 228 | 0.0 | 4.8 | 0.00 | 0.00 | 0.00 | 22 | 1015.5 |
| 20260501210650 | 16 | 287 | 1.6 | 14.5 | 0.00 | 0.00 | 0.00 | 24 | 1015.3 |
| 20260501210147 | 15 | 340 | 8.0 | 14.5 | 0.00 | 0.00 | 0.00 | 24 | 1015.5 |
| 20260501205643 | 16 | 297 | 9.7 | 16.1 | 0.00 | 0.00 | 0.00 | 24 | 1015.5 |
| 20260501205141 | 16 | 320 | 8.0 | 12.9 | 0.00 | 0.00 | 0.00 | 24 | 1015.5 |
| 20260501204637 | 16 | 2 | 3.2 | 6.4 | 0.00 | 0.00 | 0.00 | 23 | 1015.4 |
| 20260501204133 | 16 | 224 | 0.0 | 4.8 | 0.00 | 0.00 | 0.00 | 24 | 1015.4 |
| 20260501203629 | 16 | 177 | 6.4 | 11.3 | 0.00 | 0.00 | 0.00 | 23 | 1015.8 |
| 20260501203127 | 15 | 229 | 11.3 | 14.5 | 0.00 | 0.00 | 0.00 | 24 | 1015.8 |
| 20260501202624 | 15 | 326 | 3.2 | 9.7 | 0.00 | 0.00 | 0.00 | 24 | 1015.4 |
| 20260501202120 | 16 | 309 | 6.4 | 12.9 | 0.00 | 0.00 | 0.00 | 24 | 1015.6 |
| 20260501201618 | 15 | 353 | 3.2 | 11.3 | 0.00 | 0.00 | 0.00 | 25 | 1015.9 |
| 20260501201114 | 16 | 260 | 3.2 | 6.4 | 0.00 | 0.00 | 0.00 | 25 | 1015.9 |
| 20260501200611 | 16 | 342 | 1.6 | 6.4 | 0.00 | 0.00 | 0.00 | 24 | 1015.6 |
| 20260501200109 | 16 | 22 | 1.6 | 3.2 | 0.00 | 0.00 | 0.00 | 25 | 1015.9 |
| 20260501195606 | 16 | 288 | 3.2 | 4.8 | 0.00 | 0.00 | 0.00 | 24 | 1016.0 |
| 20260501195101 | 15 | 310 | 3.2 | 6.4 | 0.00 | 0.00 | 0.00 | 26 | 1015.8 |
| 20260501194556 | 15 | 286 | 1.6 | 4.8 | 0.00 | 0.00 | 0.00 | 25 | 1015.9 |
| 20260501194052 | 15 | 277 | 3.2 | 11.3 | 0.00 | 0.00 | 0.00 | 26 | 1015.9 |
| 20260501193550 | 14 | 306 | 4.8 | 9.7 | 0.00 | 0.00 | 0.00 | 26 | 1015.8 |
| 20260501193049 | 15 | 302 | 6.4 | 11.3 | 0.00 | 0.00 | 0.00 | 27 | 1015.8 |
| 20260501192545 | 15 | 353 | 6.4 | 12.9 | 0.00 | 0.00 | 0.00 | 27 | 1015.9 |
| 20260501192043 | 14 | 42 | 9.7 | 12.9 | 0.00 | 0.00 | 0.00 | 28 | 1016.0 |
| 20260501191540 | 15 | 20 | 6.4 | 14.5 | 0.00 | 0.00 | 0.00 | 26 | 1015.9 |
| 20260501191037 | 16 | 171 | 6.4 | 9.7 | 0.00 | 0.00 | 0.00 | 26 | 1015.9 |
| 20260501190532 | 15 | 315 | 1.6 | 4.8 | 0.00 | 0.00 | 0.00 | 27 | 1016.1 |
| 20260501190028 | 15 | 345 | 0.0 | 1.6 | 0.00 | 0.00 | 0.00 | 25 | 1015.9 |
| 20260501185525 | 14 | 320 | 8.0 | 9.7 | 0.00 | 0.00 | 0.00 | 26 | 1016.0 |
| 20260501185021 | 13 | 18 | 4.8 | 6.4 | 0.00 | 0.00 | 0.00 | 29 | 1016.1 |
| 20260501184518 | 15 | 34 | 6.4 | 9.7 | 0.00 | 0.00 | 0.00 | 25 | 1015.9 |
| 20260501184017 | 15 | 321 | 0.0 | 4.8 | 0.00 | 0.00 | 0.00 | 27 | 1015.9 |
| 20260501183515 | 15 | 290 | 6.4 | 12.9 | 0.00 | 0.00 | 0.00 | 27 | 1016.3 |
| 20260501183011 | 14 | 343 | 6.4 | 11.3 | 0.00 | 0.00 | 0.00 | 26 | 1016.2 |
| 20260501182508 | 13 | 284 | 4.8 | 11.3 | 0.00 | 0.00 | 0.00 | 28 | 1016.2 |
| 20260501182005 | 13 | 14 | 4.8 | 6.4 | 0.00 | 0.00 | 0.00 | 26 | 1016.2 |
| 20260501181502 | 13 | 303 | 1.6 | 9.7 | 0.00 | 0.00 | 0.00 | 27 | 1016.2 |
| 20260501180959 | 13 | 308 | 3.2 | 11.3 | 0.00 | 0.00 | 0.00 | 26 | 1016.2 |
| 20260501180456 | 13 | 30 | 6.4 | 9.7 | 0.00 | 0.00 | 0.00 | 28 | 1016.2 |
| 20260501175952 | 12 | 27 | 3.2 | 6.4 | 0.00 | 0.00 | 0.00 | 29 | 1016.1 |
| 20260501175449 | 13 | 14 | 6.4 | 12.9 | 0.00 | 0.00 | 0.00 | 29 | 1016.5 |
| 20260501174946 | 13 | 347 | 11.3 | 12.9 | 0.00 | 0.00 | 0.00 | 28 | 1016.2 |
| 20260501174444 | 12 | 227 | 0.0 | 12.9 | 0.00 | 0.00 | 0.00 | 30 | 1016.3 |
| 20260501173941 | 12 | 272 | 8.0 | 12.9 | 0.00 | 0.00 | 0.00 | 29 | 1016.5 |
| 20260501173439 | 13 | 332 | 3.2 | 11.3 | 0.00 | 0.00 | 0.00 | 29 | 1016.5 |
| 20260501172934 | 13 | 347 | 4.8 | 12.9 | 0.00 | 0.00 | 0.00 | 29 | 1016.5 |
| 20260501172430 | 12 | 307 | 1.6 | 3.2 | 0.00 | 0.00 | 0.00 | 29 | 1016.5 |
| 20260501171925 | 12 | 236 | 0.0 | 11.3 | 0.00 | 0.00 | 0.00 | 29 | 1016.6 |
| 20260501171422 | 12 | 266 | 3.2 | 4.8 | 0.00 | 0.00 | 0.00 | 30 | 1016.5 |
| 20260501170918 | 12 | 272 | 12.9 | 16.1 | 0.00 | 0.00 | 0.00 | 30 | 1016.6 |
| 20260501170415 | 12 | 213 | 6.4 | 6.4 | 0.00 | 0.00 | 0.00 | 31 | 1016.6 |
| 20260501165913 | 12 | 246 | 11.3 | 17.7 | 0.00 | 0.00 | 0.00 | 30 | 1016.5 |
| 20260501165411 | 12 | 17 | 0.0 | 16.1 | 0.00 | 0.00 | 0.00 | 30 | 1016.5 |
| 20260501164908 | 12 | 277 | 0.0 | 1.6 | 0.00 | 0.00 | 0.00 | 30 | 1016.3 |
| 20260501164406 | 13 | 260 | 6.4 | 9.7 | 0.00 | 0.00 | 0.00 | 30 | 1016.5 |
| 20260501163902 | 12 | 123 | 1.6 | 1.6 | 0.00 | 0.00 | 0.00 | 32 | 1016.3 |
| 20260501163358 | 11 | 334 | 4.8 | 12.9 | 0.00 | 0.00 | 0.00 | 30 | 1016.6 |
| 20260501162855 | 11 | 273 | 3.2 | 12.9 | 0.00 | 0.00 | 0.00 | 31 | 1016.3 |
| 20260501162352 | 12 | 212 | 3.2 | 9.7 | 0.00 | 0.00 | 0.00 | 32 | 1016.5 |
| 20260501161849 | 12 | 195 | 6.4 | 11.3 | 0.00 | 0.00 | 0.00 | 33 | 1016.3 |
| 20260501161346 | 12 | 192 | 6.4 | 9.7 | 0.00 | 0.00 | 0.00 | 33 | 1016.3 |
| 20260501160842 | 11 | 250 | 9.7 | 12.9 | 0.00 | 0.00 | 0.00 | 35 | 1016.5 |
| 20260501160339 | 11 | 267 | 14.5 | 16.1 | 0.00 | 0.00 | 0.00 | 34 | 1016.3 |
| 20260501155837 | 10 | 264 | 17.7 | 20.9 | 0.00 | 0.00 | 0.00 | 37 | 1016.5 |
| 20260501155333 | 10 | 291 | 19.3 | 25.7 | 0.00 | 0.00 | 0.00 | 38 | 1016.7 |
| 20260501154830 | 10 | 299 | 20.9 | 24.1 | 0.00 | 0.00 | 0.00 | 38 | 1016.6 |
| 20260501154327 | 10 | 272 | 17.7 | 22.5 | 0.00 | 0.00 | 0.00 | 37 | 1016.6 |
| 20260501153825 | 10 | 270 | 16.1 | 24.1 | 0.00 | 0.00 | 0.00 | 39 | 1016.8 |
| 20260501153322 | 9 | 276 | 12.9 | 20.9 | 0.00 | 0.00 | 0.00 | 41 | 1016.5 |
| 20260501152818 | 9 | 271 | 14.5 | 17.7 | 0.00 | 0.00 | 0.00 | 41 | 1016.7 |
| 20260501152316 | 8 | 258 | 11.3 | 20.9 | 0.00 | 0.00 | 0.00 | 43 | 1016.7 |